Year,Month,Day,Hour,Minute,Value (Times are PST for windgust in km/hr)
2012,02,27,00,00,3.20
2012,02,27,00,01,6.40
2012,02,27,00,02,4.80
2012,02,27,00,03,1.60
2012,02,27,00,05,1.60
2012,02,27,00,07,3.20
2012,02,27,00,08,3.20
2012,02,27,00,09,1.60
2012,02,27,00,11,3.20
2012,02,27,00,12,3.20
2012,02,27,00,14,4.80
2012,02,27,00,16,1.60
2012,02,27,00,17,3.20
2012,02,27,00,18,3.20
2012,02,27,00,19,3.20
2012,02,27,00,20,3.20
2012,02,27,00,22,3.20
2012,02,27,00,27,4.80
2012,02,27,00,28,8.10
2012,02,27,00,29,6.40
2012,02,27,00,30,4.80
2012,02,27,00,31,8.10
2012,02,27,00,32,8.10
2012,02,27,00,33,8.10
2012,02,27,00,34,6.40
2012,02,27,00,35,3.20
2012,02,27,00,36,4.80
2012,02,27,00,37,6.40
2012,02,27,00,38,4.80
2012,02,27,00,39,4.80
2012,02,27,00,40,4.80
2012,02,27,00,41,4.80
2012,02,27,00,42,4.80
2012,02,27,00,43,8.10
2012,02,27,00,44,6.40
2012,02,27,00,45,6.40
2012,02,27,00,46,6.40
2012,02,27,00,47,3.20
2012,02,27,00,48,3.20
2012,02,27,00,49,4.80
2012,02,27,00,50,3.20
2012,02,27,00,51,4.80
2012,02,27,00,52,3.20
2012,02,27,00,53,4.80
2012,02,27,00,54,3.20
2012,02,27,00,55,1.60
2012,02,27,00,56,1.60
2012,02,27,00,57,3.20
2012,02,27,00,58,3.20
2012,02,27,00,59,4.80
2012,02,27,01,01,4.80
2012,02,27,01,02,4.80
2012,02,27,01,03,4.80
2012,02,27,01,04,4.80
2012,02,27,01,05,4.80
2012,02,27,01,06,3.20
2012,02,27,01,07,3.20
2012,02,27,01,10,3.20
2012,02,27,01,11,4.80
2012,02,27,01,12,4.80
2012,02,27,01,13,3.20
2012,02,27,01,16,4.80
2012,02,27,01,17,3.20
2012,02,27,01,18,3.20
2012,02,27,01,19,1.60
2012,02,27,01,20,4.80
2012,02,27,01,21,3.20
2012,02,27,01,22,3.20
2012,02,27,01,23,4.80
2012,02,27,01,24,4.80
2012,02,27,01,25,3.20
2012,02,27,01,26,3.20
2012,02,27,01,27,3.20
2012,02,27,01,28,4.80
2012,02,27,01,29,3.20
2012,02,27,01,30,3.20
2012,02,27,01,31,3.20
2012,02,27,01,32,4.80
2012,02,27,01,33,3.20
2012,02,27,01,34,3.20
2012,02,27,01,35,3.20
2012,02,27,01,36,4.80
2012,02,27,01,37,4.80
2012,02,27,01,38,4.80
2012,02,27,01,39,1.60
2012,02,27,01,41,3.20
2012,02,27,01,42,1.60
2012,02,27,01,43,3.20
2012,02,27,01,44,4.80
2012,02,27,01,45,4.80
2012,02,27,01,46,1.60
2012,02,27,01,47,3.20
2012,02,27,01,48,3.20
2012,02,27,01,49,4.80
2012,02,27,01,50,4.80
2012,02,27,01,51,4.80
2012,02,27,01,52,3.20
2012,02,27,01,53,1.60
2012,02,27,01,54,3.20
2012,02,27,01,55,3.20
2012,02,27,01,56,3.20
2012,02,27,01,57,3.20
2012,02,27,01,58,4.80
2012,02,27,01,59,4.80
2012,02,27,02,00,1.60
2012,02,27,02,03,1.60
2012,02,27,02,05,1.60
2012,02,27,02,06,3.20
2012,02,27,02,09,6.40
2012,02,27,02,10,4.80
2012,02,27,02,11,1.60
2012,02,27,02,16,3.20
2012,02,27,02,17,3.20
2012,02,27,02,18,1.60
2012,02,27,02,24,1.60
2012,02,27,02,32,1.60
2012,02,27,02,45,1.60
2012,02,27,03,05,3.20
2012,02,27,03,06,3.20
2012,02,27,03,09,1.60
2012,02,27,03,11,3.20
2012,02,27,03,12,3.20
2012,02,27,03,13,4.80
2012,02,27,03,14,4.80
2012,02,27,03,15,1.60
2012,02,27,03,16,3.20
2012,02,27,03,17,4.80
2012,02,27,03,18,4.80
2012,02,27,03,19,1.60
2012,02,27,03,20,3.20
2012,02,27,03,21,3.20
2012,02,27,03,23,1.60
2012,02,27,03,24,6.40
2012,02,27,03,25,6.40
2012,02,27,03,26,4.80
2012,02,27,03,27,4.80
2012,02,27,03,28,4.80
2012,02,27,03,29,4.80
2012,02,27,03,30,6.40
2012,02,27,03,31,4.80
2012,02,27,03,32,3.20
2012,02,27,03,33,3.20
2012,02,27,03,34,1.60
2012,02,27,03,35,3.20
2012,02,27,03,36,3.20
2012,02,27,03,37,3.20
2012,02,27,03,38,4.80
2012,02,27,03,39,4.80
2012,02,27,03,40,4.80
2012,02,27,03,41,6.40
2012,02,27,03,42,4.80
2012,02,27,03,43,3.20
2012,02,27,03,44,3.20
2012,02,27,03,45,3.20
2012,02,27,03,46,4.80
2012,02,27,03,47,3.20
2012,02,27,03,48,3.20
2012,02,27,03,49,3.20
2012,02,27,03,50,4.80
2012,02,27,03,51,1.60
2012,02,27,03,52,1.60
2012,02,27,03,53,3.20
2012,02,27,03,54,1.60
2012,02,27,03,55,3.20
2012,02,27,03,56,1.60
2012,02,27,03,57,3.20
2012,02,27,03,58,4.80
2012,02,27,03,59,6.40
2012,02,27,04,00,4.80
2012,02,27,04,01,6.40
2012,02,27,04,02,4.80
2012,02,27,04,03,3.20
2012,02,27,04,04,6.40
2012,02,27,04,05,9.60
2012,02,27,04,06,4.80
2012,02,27,04,07,4.80
2012,02,27,04,08,4.80
2012,02,27,04,09,1.60
2012,02,27,04,10,1.60
2012,02,27,04,11,1.60
2012,02,27,04,12,4.80
2012,02,27,04,13,4.80
2012,02,27,04,14,3.20
2012,02,27,04,15,3.20
2012,02,27,04,16,3.20
2012,02,27,04,17,3.20
2012,02,27,04,19,3.20
2012,02,27,04,20,1.60
2012,02,27,04,21,1.60
2012,02,27,04,22,4.80
2012,02,27,04,23,3.20
2012,02,27,04,24,1.60
2012,02,27,04,25,1.60
2012,02,27,04,26,1.60
2012,02,27,04,36,3.20
2012,02,27,04,37,3.20
2012,02,27,04,38,3.20
2012,02,27,04,41,3.20
2012,02,27,04,43,3.20
2012,02,27,04,44,3.20
2012,02,27,04,47,1.60
2012,02,27,04,54,3.20
2012,02,27,04,56,1.60
2012,02,27,05,00,6.40
2012,02,27,05,01,3.20
2012,02,27,05,02,3.20
2012,02,27,05,04,1.60
2012,02,27,05,06,1.60
2012,02,27,05,08,3.20
2012,02,27,05,09,4.80
2012,02,27,05,10,3.20
2012,02,27,05,12,3.20
2012,02,27,05,14,1.60
2012,02,27,06,09,3.20
2012,02,27,06,10,3.20
2012,02,27,06,18,3.20
2012,02,27,06,19,3.20
2012,02,27,06,34,1.60
2012,02,27,06,40,4.80
2012,02,27,06,41,3.20
2012,02,27,06,42,3.20
2012,02,27,07,07,1.60
2012,02,27,07,09,1.60
2012,02,27,07,12,1.60
2012,02,27,07,13,1.60
2012,02,27,07,14,3.20
2012,02,27,07,27,1.60
2012,02,27,07,28,3.20
2012,02,27,07,29,3.20
2012,02,27,07,30,3.20
2012,02,27,07,31,3.20
2012,02,27,07,32,4.80
2012,02,27,07,33,1.60
2012,02,27,07,34,1.60
2012,02,27,07,37,1.60
2012,02,27,07,40,1.60
2012,02,27,07,41,3.20
2012,02,27,07,42,3.20
2012,02,27,07,43,1.60
2012,02,27,07,44,1.60
2012,02,27,08,39,1.60
2012,02,27,08,41,1.60
2012,02,27,08,42,1.60
2012,02,27,08,43,3.20
2012,02,27,08,44,3.20
2012,02,27,08,45,3.20
2012,02,27,08,46,4.80
2012,02,27,08,47,4.80
2012,02,27,08,48,3.20
2012,02,27,08,49,4.80
2012,02,27,08,50,4.80
2012,02,27,08,51,8.10
2012,02,27,08,52,4.80
2012,02,27,08,53,6.40
2012,02,27,08,54,6.40
2012,02,27,08,55,6.40
2012,02,27,08,56,6.40
2012,02,27,08,57,8.10
2012,02,27,08,58,8.10
2012,02,27,08,59,9.60
2012,02,27,09,00,11.30
2012,02,27,09,01,9.60
2012,02,27,09,02,6.40
2012,02,27,09,03,6.40
2012,02,27,09,04,3.20
2012,02,27,09,05,8.10
2012,02,27,09,06,8.10
2012,02,27,09,07,9.60
2012,02,27,09,08,9.60
2012,02,27,09,09,11.30
2012,02,27,09,10,8.10
2012,02,27,09,11,11.30
2012,02,27,09,12,8.10
2012,02,27,09,13,4.80
2012,02,27,09,14,1.60
2012,02,27,09,15,1.60
2012,02,27,09,16,1.60
2012,02,27,09,17,6.40
2012,02,27,09,18,6.40
2012,02,27,09,19,3.20
2012,02,27,09,20,3.20
2012,02,27,09,21,3.20
2012,02,27,09,22,1.60
2012,02,27,09,23,6.40
2012,02,27,09,24,8.10
2012,02,27,09,25,4.80
2012,02,27,09,26,8.10
2012,02,27,09,27,6.40
2012,02,27,09,28,4.80
2012,02,27,09,29,4.80
2012,02,27,09,30,8.10
2012,02,27,09,31,8.10
2012,02,27,09,32,9.60
2012,02,27,09,33,9.60
2012,02,27,09,34,9.60
2012,02,27,09,35,9.60
2012,02,27,09,36,11.30
2012,02,27,09,37,11.30
2012,02,27,09,38,9.60
2012,02,27,09,39,9.60
2012,02,27,09,40,4.80
2012,02,27,09,41,6.40
2012,02,27,09,42,6.40
2012,02,27,09,43,16.10
2012,02,27,09,44,12.90
2012,02,27,09,45,8.10
2012,02,27,09,46,11.30
2012,02,27,09,47,9.60
2012,02,27,09,48,9.60
2012,02,27,09,49,8.10
2012,02,27,09,50,4.80
2012,02,27,09,51,6.40
2012,02,27,09,52,11.30
2012,02,27,09,53,19.30
2012,02,27,09,54,14.50
2012,02,27,09,55,9.60
2012,02,27,09,56,8.10
2012,02,27,09,57,11.30
2012,02,27,09,58,9.60
2012,02,27,09,59,6.40
2012,02,27,10,00,12.90
2012,02,27,10,01,14.50
2012,02,27,10,02,8.10
2012,02,27,10,03,11.30
2012,02,27,10,04,11.30
2012,02,27,10,05,9.60
2012,02,27,10,06,3.20
2012,02,27,10,07,3.20
2012,02,27,10,08,14.50
2012,02,27,10,09,20.90
2012,02,27,10,10,17.70
2012,02,27,10,11,19.30
2012,02,27,10,12,12.90
2012,02,27,10,13,11.30
2012,02,27,10,14,8.10
2012,02,27,10,15,16.10
2012,02,27,10,16,14.50
2012,02,27,10,17,12.90
2012,02,27,10,18,9.60
2012,02,27,10,19,4.80
2012,02,27,10,20,11.30
2012,02,27,10,21,17.70
2012,02,27,10,22,9.60
2012,02,27,10,23,11.30
2012,02,27,10,24,6.40
2012,02,27,10,25,14.50
2012,02,27,10,26,9.60
2012,02,27,10,27,6.40
2012,02,27,10,28,6.40
2012,02,27,10,29,11.30
2012,02,27,10,30,9.60
2012,02,27,10,31,6.40
2012,02,27,10,32,3.20
2012,02,27,10,33,4.80
2012,02,27,10,34,6.40
2012,02,27,10,35,11.30
2012,02,27,10,36,14.50
2012,02,27,10,37,8.10
2012,02,27,10,38,9.60
2012,02,27,10,39,9.60
2012,02,27,10,40,6.40
2012,02,27,10,41,9.60
2012,02,27,10,42,11.30
2012,02,27,10,43,9.60
2012,02,27,10,44,6.40
2012,02,27,10,45,4.80
2012,02,27,10,46,9.60
2012,02,27,10,47,17.70
2012,02,27,10,48,8.10
2012,02,27,10,49,4.80
2012,02,27,10,50,8.10
2012,02,27,10,51,14.50
2012,02,27,10,52,12.90
2012,02,27,10,53,16.10
2012,02,27,10,54,12.90
2012,02,27,10,55,9.60
2012,02,27,10,56,6.40
2012,02,27,10,57,11.30
2012,02,27,10,58,14.50
2012,02,27,10,59,6.40
2012,02,27,11,00,11.30
2012,02,27,11,01,22.50
2012,02,27,11,02,9.60
2012,02,27,11,03,11.30
2012,02,27,11,04,19.30
2012,02,27,11,05,12.90
2012,02,27,11,06,11.30
2012,02,27,11,07,11.30
2012,02,27,11,08,11.30
2012,02,27,11,09,8.10
2012,02,27,11,10,9.60
2012,02,27,11,11,9.60
2012,02,27,11,12,8.10
2012,02,27,11,13,14.50
2012,02,27,11,14,16.10
2012,02,27,11,15,16.10
2012,02,27,11,16,14.50
2012,02,27,11,17,8.10
2012,02,27,11,18,8.10
2012,02,27,11,19,9.60
2012,02,27,11,20,8.10
2012,02,27,11,21,8.10
2012,02,27,11,22,8.10
2012,02,27,11,23,14.50
2012,02,27,11,24,12.90
2012,02,27,11,25,16.10
2012,02,27,11,26,11.30
2012,02,27,11,27,11.30
2012,02,27,11,28,17.70
2012,02,27,11,29,9.60
2012,02,27,11,30,6.40
2012,02,27,11,31,6.40
2012,02,27,11,32,9.60
2012,02,27,11,33,16.10
2012,02,27,11,34,9.60
2012,02,27,11,35,6.40
2012,02,27,11,36,8.10
2012,02,27,11,37,14.50
2012,02,27,11,38,8.10
2012,02,27,11,39,9.60
2012,02,27,11,40,8.10
2012,02,27,11,41,6.40
2012,02,27,11,42,8.10
2012,02,27,11,43,14.50
2012,02,27,11,44,9.60
2012,02,27,11,45,6.40
2012,02,27,11,46,12.90
2012,02,27,11,47,9.60
2012,02,27,11,48,8.10
2012,02,27,11,49,12.90
2012,02,27,11,50,8.10
2012,02,27,11,51,9.60
2012,02,27,11,52,6.40
2012,02,27,11,53,8.10
2012,02,27,11,54,11.30
2012,02,27,11,55,8.10
2012,02,27,11,56,12.90
2012,02,27,11,57,9.60
2012,02,27,11,58,9.60
2012,02,27,11,59,9.60
2012,02,27,12,00,9.60
2012,02,27,12,01,12.90
2012,02,27,12,02,4.80
2012,02,27,12,03,14.50
2012,02,27,12,04,9.60
2012,02,27,12,05,17.70
2012,02,27,12,06,14.50
2012,02,27,12,07,6.40
2012,02,27,12,08,17.70
2012,02,27,12,09,17.70
2012,02,27,12,10,19.30
2012,02,27,12,11,12.90
2012,02,27,12,12,11.30
2012,02,27,12,13,14.50
2012,02,27,12,14,11.30
2012,02,27,12,15,11.30
2012,02,27,12,16,9.60
2012,02,27,12,17,16.10
2012,02,27,12,18,14.50
2012,02,27,12,19,9.60
2012,02,27,12,20,16.10
2012,02,27,12,21,11.30
2012,02,27,12,22,11.30
2012,02,27,12,23,16.10
2012,02,27,12,24,11.30
2012,02,27,12,25,14.50
2012,02,27,12,26,12.90
2012,02,27,12,27,12.90
2012,02,27,12,28,6.40
2012,02,27,12,29,9.60
2012,02,27,12,30,9.60
2012,02,27,12,31,6.40
2012,02,27,12,32,9.60
2012,02,27,12,33,9.60
2012,02,27,12,34,16.10
2012,02,27,12,35,19.30
2012,02,27,12,36,14.50
2012,02,27,12,37,9.60
2012,02,27,12,38,11.30
2012,02,27,12,39,11.30
2012,02,27,12,40,16.10
2012,02,27,12,41,19.30
2012,02,27,12,42,16.10
2012,02,27,12,43,6.40
2012,02,27,12,44,9.60
2012,02,27,12,45,6.40
2012,02,27,12,46,16.10
2012,02,27,12,47,14.50
2012,02,27,12,48,16.10
2012,02,27,12,49,17.70
2012,02,27,12,50,11.30
2012,02,27,12,51,14.50
2012,02,27,12,52,9.60
2012,02,27,12,53,11.30
2012,02,27,12,54,14.50
2012,02,27,12,55,11.30
2012,02,27,12,56,11.30
2012,02,27,12,57,17.70
2012,02,27,12,58,16.10
2012,02,27,12,59,12.90
2012,02,27,13,00,17.70
2012,02,27,13,01,19.30
2012,02,27,13,02,19.30
2012,02,27,13,03,14.50
2012,02,27,13,04,14.50
2012,02,27,13,05,9.60
2012,02,27,13,06,14.50
2012,02,27,13,07,16.10
2012,02,27,13,08,19.30
2012,02,27,13,09,22.50
2012,02,27,13,10,11.30
2012,02,27,13,11,9.60
2012,02,27,13,12,16.10
2012,02,27,13,13,20.90
2012,02,27,13,14,20.90
2012,02,27,13,15,24.20
2012,02,27,13,16,22.50
2012,02,27,13,17,8.10
2012,02,27,13,18,16.10
2012,02,27,13,19,14.50
2012,02,27,13,20,19.30
2012,02,27,13,21,17.70
2012,02,27,13,22,11.30
2012,02,27,13,23,11.30
2012,02,27,13,24,17.70
2012,02,27,13,25,8.10
2012,02,27,13,26,16.10
2012,02,27,13,27,20.90
2012,02,27,13,28,16.10
2012,02,27,13,29,9.60
2012,02,27,13,30,8.10
2012,02,27,13,31,11.30
2012,02,27,13,32,20.90
2012,02,27,13,33,20.90
2012,02,27,13,34,14.50
2012,02,27,13,35,6.40
2012,02,27,13,36,14.50
2012,02,27,13,37,9.60
2012,02,27,13,38,14.50
2012,02,27,13,39,14.50
2012,02,27,13,40,17.70
2012,02,27,13,41,17.70
2012,02,27,13,42,9.60
2012,02,27,13,43,11.30
2012,02,27,13,44,11.30
2012,02,27,13,45,9.60
2012,02,27,13,46,19.30
2012,02,27,13,47,17.70
2012,02,27,13,48,6.40
2012,02,27,13,49,6.40
2012,02,27,13,50,9.60
2012,02,27,13,51,6.40
2012,02,27,13,52,16.10
2012,02,27,13,53,9.60
2012,02,27,13,54,17.70
2012,02,27,13,55,11.30
2012,02,27,13,56,9.60
2012,02,27,13,57,6.40
2012,02,27,13,58,17.70
2012,02,27,13,59,16.10
2012,02,27,14,00,24.20
2012,02,27,14,01,17.70
2012,02,27,14,02,19.30
2012,02,27,14,03,22.50
2012,02,27,14,04,20.90
2012,02,27,14,05,14.50
2012,02,27,14,06,20.90
2012,02,27,14,07,17.70
2012,02,27,14,08,17.70
2012,02,27,14,09,19.30
2012,02,27,14,10,14.50
2012,02,27,14,11,16.10
2012,02,27,14,12,11.30
2012,02,27,14,13,11.30
2012,02,27,14,14,16.10
2012,02,27,14,15,9.60
2012,02,27,14,16,16.10
2012,02,27,14,17,22.50
2012,02,27,14,18,14.50
2012,02,27,14,19,16.10
2012,02,27,14,20,11.30
2012,02,27,14,21,11.30
2012,02,27,14,22,11.30
2012,02,27,14,23,9.60
2012,02,27,14,24,16.10
2012,02,27,14,25,17.70
2012,02,27,14,26,14.50
2012,02,27,14,27,16.10
2012,02,27,14,28,11.30
2012,02,27,14,29,17.70
2012,02,27,14,30,14.50
2012,02,27,14,31,6.40
2012,02,27,14,32,6.40
2012,02,27,14,33,9.60
2012,02,27,14,34,17.70
2012,02,27,14,35,19.30
2012,02,27,14,36,17.70
2012,02,27,14,37,16.10
2012,02,27,14,38,16.10
2012,02,27,14,39,8.10
2012,02,27,14,40,14.50
2012,02,27,14,41,17.70
2012,02,27,14,42,14.50
2012,02,27,14,43,8.10
2012,02,27,14,44,17.70
2012,02,27,14,45,19.30
2012,02,27,14,46,17.70
2012,02,27,14,47,19.30
2012,02,27,14,48,8.10
2012,02,27,14,49,9.60
2012,02,27,14,50,6.40
2012,02,27,14,51,14.50
2012,02,27,14,52,9.60
2012,02,27,14,53,11.30
2012,02,27,14,54,12.90
2012,02,27,14,55,14.50
2012,02,27,14,56,11.30
2012,02,27,14,57,8.10
2012,02,27,14,58,14.50
2012,02,27,14,59,14.50
2012,02,27,15,00,12.90
2012,02,27,15,01,16.10
2012,02,27,15,02,17.70
2012,02,27,15,03,20.90
2012,02,27,15,04,16.10
2012,02,27,15,05,17.70
2012,02,27,15,06,17.70
2012,02,27,15,07,19.30
2012,02,27,15,08,14.50
2012,02,27,15,09,16.10
2012,02,27,15,10,11.30
2012,02,27,15,11,14.50
2012,02,27,15,12,16.10
2012,02,27,15,13,16.10
2012,02,27,15,14,16.10
2012,02,27,15,15,14.50
2012,02,27,15,16,14.50
2012,02,27,15,17,19.30
2012,02,27,15,18,12.90
2012,02,27,15,19,19.30
2012,02,27,15,20,16.10
2012,02,27,15,21,9.60
2012,02,27,15,22,9.60
2012,02,27,15,23,17.70
2012,02,27,15,24,8.10
2012,02,27,15,25,11.30
2012,02,27,15,26,9.60
2012,02,27,15,27,11.30
2012,02,27,15,28,11.30
2012,02,27,15,29,9.60
2012,02,27,15,30,14.50
2012,02,27,15,31,16.10
2012,02,27,15,32,19.30
2012,02,27,15,33,14.50
2012,02,27,15,34,8.10
2012,02,27,15,35,11.30
2012,02,27,15,36,6.40
2012,02,27,15,37,8.10
2012,02,27,15,38,17.70
2012,02,27,15,39,9.60
2012,02,27,15,40,6.40
2012,02,27,15,41,11.30
2012,02,27,15,42,11.30
2012,02,27,15,43,9.60
2012,02,27,15,44,9.60
2012,02,27,15,45,8.10
2012,02,27,15,46,14.50
2012,02,27,15,47,9.60
2012,02,27,15,48,9.60
2012,02,27,15,49,14.50
2012,02,27,15,50,11.30
2012,02,27,15,51,16.10
2012,02,27,15,52,12.90
2012,02,27,15,53,17.70
2012,02,27,15,54,16.10
2012,02,27,15,55,14.50
2012,02,27,15,56,9.60
2012,02,27,15,57,9.60
2012,02,27,15,58,16.10
2012,02,27,15,59,19.30
2012,02,27,16,00,16.10
2012,02,27,16,01,16.10
2012,02,27,16,02,6.40
2012,02,27,16,03,9.60
2012,02,27,16,04,8.10
2012,02,27,16,05,11.30
2012,02,27,16,06,12.90
2012,02,27,16,07,16.10
2012,02,27,16,08,14.50
2012,02,27,16,09,17.70
2012,02,27,16,10,11.30
2012,02,27,16,11,17.70
2012,02,27,16,12,16.10
2012,02,27,16,13,11.30
2012,02,27,16,14,9.60
2012,02,27,16,15,16.10
2012,02,27,16,16,9.60
2012,02,27,16,17,12.90
2012,02,27,16,18,12.90
2012,02,27,16,19,11.30
2012,02,27,16,20,11.30
2012,02,27,16,21,11.30
2012,02,27,16,22,11.30
2012,02,27,16,23,6.40
2012,02,27,16,24,11.30
2012,02,27,16,25,9.60
2012,02,27,16,26,12.90
2012,02,27,16,27,14.50
2012,02,27,16,28,12.90
2012,02,27,16,29,9.60
2012,02,27,16,30,14.50
2012,02,27,16,31,11.30
2012,02,27,16,32,6.40
2012,02,27,16,33,16.10
2012,02,27,16,34,12.90
2012,02,27,16,35,6.40
2012,02,27,16,36,6.40
2012,02,27,16,37,8.10
2012,02,27,16,38,6.40
2012,02,27,16,39,9.60
2012,02,27,16,40,11.30
2012,02,27,16,41,16.10
2012,02,27,16,42,16.10
2012,02,27,16,43,16.10
2012,02,27,16,44,12.90
2012,02,27,16,45,14.50
2012,02,27,16,46,8.10
2012,02,27,16,47,11.30
2012,02,27,16,48,14.50
2012,02,27,16,49,9.60
2012,02,27,16,50,12.90
2012,02,27,16,51,11.30
2012,02,27,16,52,8.10
2012,02,27,16,53,6.40
2012,02,27,16,54,12.90
2012,02,27,16,55,11.30
2012,02,27,16,56,8.10
2012,02,27,16,57,4.80
2012,02,27,16,58,14.50
2012,02,27,16,59,9.60
2012,02,27,17,00,8.10
2012,02,27,17,01,9.60
2012,02,27,17,02,14.50
2012,02,27,17,03,9.60
2012,02,27,17,04,11.30
2012,02,27,17,05,9.60
2012,02,27,17,06,14.50
2012,02,27,17,07,8.10
2012,02,27,17,08,9.60
2012,02,27,17,09,8.10
2012,02,27,17,10,8.10
2012,02,27,17,11,14.50
2012,02,27,17,12,9.60
2012,02,27,17,13,9.60
2012,02,27,17,14,8.10
2012,02,27,17,15,8.10
2012,02,27,17,16,14.50
2012,02,27,17,17,14.50
2012,02,27,17,18,11.30
2012,02,27,17,19,6.40
2012,02,27,17,20,11.30
2012,02,27,17,21,9.60
2012,02,27,17,22,9.60
2012,02,27,17,23,9.60
2012,02,27,17,24,17.70
2012,02,27,17,25,14.50
2012,02,27,17,26,11.30
2012,02,27,17,27,11.30
2012,02,27,17,28,9.60
2012,02,27,17,29,9.60
2012,02,27,17,30,14.50
2012,02,27,17,31,11.30
2012,02,27,17,32,6.40
2012,02,27,17,33,6.40
2012,02,27,17,34,9.60
2012,02,27,17,35,8.10
2012,02,27,17,36,9.60
2012,02,27,17,37,8.10
2012,02,27,17,38,9.60
2012,02,27,17,39,11.30
2012,02,27,17,40,9.60
2012,02,27,17,41,9.60
2012,02,27,17,42,8.10
2012,02,27,17,43,8.10
2012,02,27,17,44,14.50
2012,02,27,17,45,9.60
2012,02,27,17,46,6.40
2012,02,27,17,47,8.10
2012,02,27,17,48,9.60
2012,02,27,17,49,9.60
2012,02,27,17,50,9.60
2012,02,27,17,51,8.10
2012,02,27,17,52,12.90
2012,02,27,17,53,6.40
2012,02,27,17,54,6.40
2012,02,27,17,55,9.60
2012,02,27,17,56,9.60
2012,02,27,17,57,8.10
2012,02,27,17,58,11.30
2012,02,27,17,59,8.10
2012,02,27,18,00,11.30
2012,02,27,18,01,8.10
2012,02,27,18,02,6.40
2012,02,27,18,03,6.40
2012,02,27,18,04,12.90
2012,02,27,18,05,11.30
2012,02,27,18,06,8.10
2012,02,27,18,07,8.10
2012,02,27,18,08,8.10
2012,02,27,18,09,8.10
2012,02,27,18,10,8.10
2012,02,27,18,11,9.60
2012,02,27,18,12,9.60
2012,02,27,18,13,9.60
2012,02,27,18,14,9.60
2012,02,27,18,15,9.60
2012,02,27,18,16,4.80
2012,02,27,18,17,9.60
2012,02,27,18,18,9.60
2012,02,27,18,19,8.10
2012,02,27,18,20,6.40
2012,02,27,18,21,8.10
2012,02,27,18,22,6.40
2012,02,27,18,23,6.40
2012,02,27,18,24,8.10
2012,02,27,18,25,8.10
2012,02,27,18,26,9.60
2012,02,27,18,27,6.40
2012,02,27,18,28,8.10
2012,02,27,18,29,8.10
2012,02,27,18,30,9.60
2012,02,27,18,31,6.40
2012,02,27,18,32,8.10
2012,02,27,18,33,8.10
2012,02,27,18,34,9.60
2012,02,27,18,35,9.60
2012,02,27,18,36,11.30
2012,02,27,18,37,11.30
2012,02,27,18,38,11.30
2012,02,27,18,39,8.10
2012,02,27,18,40,9.60
2012,02,27,18,41,6.40
2012,02,27,18,42,9.60
2012,02,27,18,43,11.30
2012,02,27,18,44,8.10
2012,02,27,18,45,8.10
2012,02,27,18,46,8.10
2012,02,27,18,47,8.10
2012,02,27,18,48,8.10
2012,02,27,18,49,9.60
2012,02,27,18,50,12.90
2012,02,27,18,51,6.40
2012,02,27,18,52,9.60
2012,02,27,18,53,8.10
2012,02,27,18,54,8.10
2012,02,27,18,55,11.30
2012,02,27,18,56,8.10
2012,02,27,18,57,8.10
2012,02,27,18,58,9.60
2012,02,27,18,59,12.90
2012,02,27,19,00,11.30
2012,02,27,19,01,11.30
2012,02,27,19,02,9.60
2012,02,27,19,03,9.60
2012,02,27,19,04,11.30
2012,02,27,19,05,6.40
2012,02,27,19,06,9.60
2012,02,27,19,07,8.10
2012,02,27,19,08,9.60
2012,02,27,19,09,8.10
2012,02,27,19,10,8.10
2012,02,27,19,11,6.40
2012,02,27,19,12,8.10
2012,02,27,19,13,11.30
2012,02,27,19,14,8.10
2012,02,27,19,15,8.10
2012,02,27,19,16,11.30
2012,02,27,19,17,9.60
2012,02,27,19,18,8.10
2012,02,27,19,19,14.50
2012,02,27,19,20,9.60
2012,02,27,19,21,11.30
2012,02,27,19,22,16.10
2012,02,27,19,23,14.50
2012,02,27,19,24,14.50
2012,02,27,19,25,16.10
2012,02,27,19,26,11.30
2012,02,27,19,27,14.50
2012,02,27,19,28,16.10
2012,02,27,19,29,12.90
2012,02,27,19,30,9.60
2012,02,27,19,31,11.30
2012,02,27,19,32,9.60
2012,02,27,19,33,8.10
2012,02,27,19,34,8.10
2012,02,27,19,35,4.80
2012,02,27,19,36,6.40
2012,02,27,19,37,6.40
2012,02,27,19,38,8.10
2012,02,27,19,39,8.10
2012,02,27,19,40,6.40
2012,02,27,19,41,6.40
2012,02,27,19,42,4.80
2012,02,27,19,43,6.40
2012,02,27,19,44,4.80
2012,02,27,19,45,6.40
2012,02,27,19,46,6.40
2012,02,27,19,47,4.80
2012,02,27,19,48,6.40
2012,02,27,19,49,6.40
2012,02,27,19,50,6.40
2012,02,27,19,51,8.10
2012,02,27,19,52,8.10
2012,02,27,19,53,4.80
2012,02,27,19,54,6.40
2012,02,27,19,55,4.80
2012,02,27,19,56,4.80
2012,02,27,19,57,4.80
2012,02,27,19,58,6.40
2012,02,27,19,59,6.40
2012,02,27,20,00,6.40
2012,02,27,20,01,6.40
2012,02,27,20,02,3.20
2012,02,27,20,03,4.80
2012,02,27,20,04,3.20
2012,02,27,20,05,4.80
2012,02,27,20,06,4.80
2012,02,27,20,07,3.20
2012,02,27,20,08,4.80
2012,02,27,20,09,4.80
2012,02,27,20,10,8.10
2012,02,27,20,11,4.80
2012,02,27,20,12,6.40
2012,02,27,20,13,4.80
2012,02,27,20,14,6.40
2012,02,27,20,15,4.80
2012,02,27,20,16,4.80
2012,02,27,20,17,6.40
2012,02,27,20,18,9.60
2012,02,27,20,19,4.80
2012,02,27,20,20,6.40
2012,02,27,20,21,4.80
2012,02,27,20,22,4.80
2012,02,27,20,23,8.10
2012,02,27,20,24,9.60
2012,02,27,20,25,8.10
2012,02,27,20,26,8.10
2012,02,27,20,27,6.40
2012,02,27,20,28,11.30
2012,02,27,20,29,8.10
2012,02,27,20,30,9.60
2012,02,27,20,31,8.10
2012,02,27,20,32,9.60
2012,02,27,20,33,8.10
2012,02,27,20,34,8.10
2012,02,27,20,35,6.40
2012,02,27,20,36,8.10
2012,02,27,20,37,8.10
2012,02,27,20,38,8.10
2012,02,27,20,39,6.40
2012,02,27,20,40,8.10
2012,02,27,20,41,8.10
2012,02,27,20,42,6.40
2012,02,27,20,43,8.10
2012,02,27,20,44,9.60
2012,02,27,20,45,8.10
2012,02,27,20,46,8.10
2012,02,27,20,47,8.10
2012,02,27,20,48,9.60
2012,02,27,20,49,6.40
2012,02,27,20,50,6.40
2012,02,27,20,51,6.40
2012,02,27,20,52,8.10
2012,02,27,20,53,8.10
2012,02,27,20,54,6.40
2012,02,27,20,55,4.80
2012,02,27,20,56,4.80
2012,02,27,20,57,6.40
2012,02,27,20,58,8.10
2012,02,27,20,59,6.40
2012,02,27,21,00,8.10
2012,02,27,21,01,6.40
2012,02,27,21,02,8.10
2012,02,27,21,03,4.80
2012,02,27,21,04,6.40
2012,02,27,21,05,6.40
2012,02,27,21,06,6.40
2012,02,27,21,07,4.80
2012,02,27,21,08,6.40
2012,02,27,21,09,6.40
2012,02,27,21,10,6.40
2012,02,27,21,11,4.80
2012,02,27,21,12,6.40
2012,02,27,21,13,6.40
2012,02,27,21,14,4.80
2012,02,27,21,15,4.80
2012,02,27,21,16,4.80
2012,02,27,21,17,6.40
2012,02,27,21,18,4.80
2012,02,27,21,19,6.40
2012,02,27,21,20,8.10
2012,02,27,21,21,8.10
2012,02,27,21,22,6.40
2012,02,27,21,23,6.40
2012,02,27,21,24,6.40
2012,02,27,21,25,6.40
2012,02,27,21,26,8.10
2012,02,27,21,27,6.40
2012,02,27,21,28,9.60
2012,02,27,21,29,8.10
2012,02,27,21,30,8.10
2012,02,27,21,31,11.30
2012,02,27,21,32,8.10
2012,02,27,21,33,4.80
2012,02,27,21,34,9.60
2012,02,27,21,35,6.40
2012,02,27,21,36,6.40
2012,02,27,21,37,6.40
2012,02,27,21,38,6.40
2012,02,27,21,39,6.40
2012,02,27,21,40,8.10
2012,02,27,21,41,8.10
2012,02,27,21,42,8.10
2012,02,27,21,43,8.10
2012,02,27,21,44,8.10
2012,02,27,21,45,11.30
2012,02,27,21,46,6.40
2012,02,27,21,47,4.80
2012,02,27,21,48,8.10
2012,02,27,21,49,11.30
2012,02,27,21,50,11.30
2012,02,27,21,51,8.10
2012,02,27,21,52,11.30
2012,02,27,21,53,8.10
2012,02,27,21,54,6.40
2012,02,27,21,55,14.50
2012,02,27,21,56,11.30
2012,02,27,21,57,6.40
2012,02,27,21,58,8.10
2012,02,27,21,59,6.40
2012,02,27,22,00,11.30
2012,02,27,22,01,8.10
2012,02,27,22,02,8.10
2012,02,27,22,03,8.10
2012,02,27,22,04,11.30
2012,02,27,22,05,8.10
2012,02,27,22,06,9.60
2012,02,27,22,07,9.60
2012,02,27,22,08,11.30
2012,02,27,22,09,6.40
2012,02,27,22,10,8.10
2012,02,27,22,11,8.10
2012,02,27,22,12,8.10
2012,02,27,22,13,8.10
2012,02,27,22,14,6.40
2012,02,27,22,15,9.60
2012,02,27,22,16,6.40
2012,02,27,22,17,8.10
2012,02,27,22,18,4.80
2012,02,27,22,19,8.10
2012,02,27,22,20,11.30
2012,02,27,22,21,11.30
2012,02,27,22,22,8.10
2012,02,27,22,23,6.40
2012,02,27,22,24,8.10
2012,02,27,22,25,6.40
2012,02,27,22,26,6.40
2012,02,27,22,27,9.60
2012,02,27,22,28,9.60
2012,02,27,22,29,8.10
2012,02,27,22,30,9.60
2012,02,27,22,31,9.60